sat.trackr.live / text

‹ back to catalog

SJ-11-02

NORAD 37765 · 2011-039A

PAYLOAD ACTIVE UNKNOWN

§ Identity

Operator
Country
PRC
Launch date
2011-07-29
Launch site
JSC
Launch vehicle
Mass (kg)
RCS (m²)
2.33

External: N2YO · Heavens-Above · Gunter

§ Orbital elements

Epoch: 2026-09-19T11:38:34.766304Z

Period
98.32 min
Inclination
98.2467°
Eccentricity
0.0009983
Mean motion
14.64556132 rev/d
Perigee alt
671.5 km
Apogee alt
685.5 km
Semi-major
7,056.6 km
B*
5.6038e-5
RAAN
152.7504°
Arg perigee
334.1812°
Mean anomaly
199.2344°
Rev number
80,775

§ Raw data

SJ-11-021 37765U 11039A   26262.48512461  .00000248  00000+0  56038-4 0  99902 37765  98.2467 152.7504 0009983 334.1812 199.2344 14.64556132807757

JSON: /api/v1/satellites/37765 · /tle

For live sub-satellite position, see the globe view (requires WebGL).

§ Visibility from observer

Set your observer location to see the next 7 days of passes ≥ 10°. The values pass through the URL so the page stays shareable.

No JS? Fill the form by hand. The geolocation button needs JavaScript.